Simultaneous Nadir Overpasses (SNOs) Predictions

Prediction of SNOs between AQUA and GOES-15 Satellite Orbit:

Table of predicted SNOs for the next 14.0 days since TLE Epoch: 3/27/2021
Index Date Time (AQUA) AQUA Lat,Lon GOES-15 Lat,Lon Distance(km) Time Diff (sec)
1 03/27/2021 10:01:02 -0.45,-126.44 -0.06,-128.36 218.31 80
2 03/27/2021 22:22:26 -0.67,-131.63 0.05,-128.37 370.82 80
3 03/29/2021 22:10:15 -0.01,-128.68 0.06,-128.35 36.72 80
4 03/31/2021 21:58:03 0.59,-125.71 0.06,-128.33 296.72 80
5 04/01/2021 10:19:19 0.47,-130.88 -0.05,-128.32 290.80 80
6 04/03/2021 10:07:07 -0.13,-127.92 -0.05,-128.28 41.55 80
7 04/05/2021 09:54:55 -0.74,-124.96 -0.05,-128.24 373.62 80
8 04/05/2021 22:16:19 -0.38,-130.15 0.04,-128.24 217.48 80
9 04/07/2021 22:04:07 0.24,-127.19 0.03,-128.20 114.71 80
10 04/08/2021 10:25:22 0.87,-132.34 -0.02,-128.20 471.39 80
11 04/09/2021 21:51:55 0.86,-124.23 0.04,-128.16 446.90 80
